Location: Unspecified
(0.0000°N, 0.0000°E)
Time: 13:56:13
(UTC+00:00)

N. Korean satellite - Pass Details

Date: 09 April 2021
Orbit: 452 x 499 km, 97.2° (Epoch: 15 April)

Event Time Altitude Azimuth Distance (km) Brightness Sun altitude
Rises 04:34:49 0° 26° (NNE) 2,532 10.7 -21.5°
Reaches altitude 10° 04:37:02 10° 37° (NE) 1,648 9.8 -21.0°
Maximum altitude 04:40:13 32° 101° (E) 844 8.4 -20.2°
Drops below altitude 10° 04:43:22 10° 165° (SSE) 1,631 9.3 -19.4°
Sets 04:45:32 0° 175° (S) 2,501 10.2 -18.8°
